FENGYUN 1C DEB

Satellite information

Favourite Embed

Satellite Type and Status

DEBRISIN ORBIT

Key statistics

Satellite FENGYUN 1C DEB at a glance.

Uptime

9658

Days in orbit

Revolutions

≈ 14.2

Per day

Orbit

SSO

Sun Synchronous Orbit

Inclination

98.7

Latest

Satellite identification and parameters

Extended collection of information and parameters for FENGYUN 1C DEB.

Object identification

Identified? True

Debris? True

Object name: FENGYUN 1C DEB

International designator: 1999-025CLH

Object number (NORAD): 31906

Object ID (CCSDS): 31906

Country: PEOPLES REPUBLIC OF CHINA (PRC)

Current information (Y/N): Y

RCS size: SMALL

Orbital parameters

Period: 101.141 minutes

Inclination: 98.6925 deg

SMA: 7190.816 km

Apoapsis: 850.882 km

Periapsis: 774.48 km

RAAN: 64.0403 deg

Eccentricy: 0.0053125

Argument of periapsis: 284.6345 deg

Mean anomaly: 134.0406 deg

Mean motion: 14.23755702 rev/day

Mean motion (dot): 0.00005233 rev/day2

B* drag term: 0.0022747 1/REarth

Two-line elements (TLE)

Creation date: Oct. 17, 2025, 8:16 p.m.

Reference frame: TEME

Reference center: EARTH

Epoch: Oct. 17, 2025, 7:38 a.m. UTC

TLE line 0: 0 FENGYUN 1C DEB

TLE line 1: 1 31906U 99025CLH 25290.31857615 .00005233 00000-0 22747-2 0 9995

TLE line 2: 2 31906 98.6925 64.0403 0053125 284.6345 134.0406 14.23755702943263

Live tracking on map

Real-time ground track for satellite FENGYUN 1C DEB.

In-orbit conjunctions

A list of the most updated potential collisions computed for object FENGYUN 1C DEB.

Target Orbit TCA Probability of collision Miss distance Type
CZ-4B R/B SSO 2024-11-12 20:12:49 0.0001329568 542.0 (m) ROCKET BODY
METEOR 1-22 DEB LEO 2024-11-10 03:55:13 0.0001036785 314.0 (m) DEBRIS

Associated space launch

Chinese polar orbiting meteorological satellite

FENGYUN 1C DEB was lifted into orbit during the mission ‘Long March 4B | Feng Yun 1C’, on board a Long March 4B space rocket.

The launch took place on May 10, 1999, 1:33 a.m. from Launch Complex 7.

For more information about the launch, click the button.

Launch to space Long March 4B | Feng Yun 1C
Long March 4B | Feng Yun 1C

Agency: N/A

Status: Launch Successful

Launch date: May 10, 1999, 1:33 a.m. UTC

Rocket: Long March 4B

Launch pad: Launch Complex 7

Location: Taiyuan Satellite Launch Center, People's Republic of China

...

Latest news about this satellite

There are no fresh news available about this satellite. Check back as we update our databases every day.


Newsletter sign-up

Weekly statistics, charts and insights to help you stay on top of the space industry.